Theta_e
352 352 354 355 355 356 355 356 357 359 361 362 362 358 357 357 357 358 356 353 353 353 350 347 352 354 355 354 354 353 352 353 354 349 348 349 352 353 352 352 353 353 352
354 355 355 355 355 354 355 356 359 360 362 360 350 347 344 340 348 353 353 350 350 349 348 348 348 350 353 353 353 353 350 350 352 351 350 351 351 352 352 353 352 352 351
355 355 354 355 355 355 355 357 361 363 359 351 347 344 334 336 341 349 349 348 348 347 347 347 347 348 349 347 348 349 350 349 349 351 350 346 343 350 351 352 353 352 350
356 355 356 357 357 355 356 359 362 361 355 349 349 345 344 348 347 347 350 351 350 349 349 347 346 349 347 348 348 347 348 345 348 350 345 340 346 348 350 349 348 348 346
356 353 357 353 354 357 361 364 364 357 354 347 351 349 350 349 351 349 348 348 349 348 347 347 346 345 344 344 343 346 350 351 349 349 350 350 350 347 348 348 348 348 348
362 361 361 360 359 364 364 362 359 356 356 355 353 352 352 350 349 347 346 347 351 346 347 346 346 345 345 345 343 342 343 345 347 348 348 348 348 347 348 347 346 346 345
365 365 365 365 363 361 359 356 356 356 355 355 354 353 351 347 341 340 343 348 346 346 346 347 348 345 345 345 346 346 347 345 344 344 346 345 344 346 346 346 346 344 343
364 364 363 362 360 359 357 356 354 354 354 353 352 351 348 339 339 340 344 345 345 345 345 344 345 345 339 339 343 345 347 346 344 344 344 343 341 341 342 343 344 342 340
359 359 359 358 357 355 353 353 352 351 350 348 347 346 346 343 338 338 344 343 345 344 343 339 341 341 335 336 341 342 342 343 342 341 338 338 338 338 340 340 342 340 343
357 356 355 353 352 352 353 352 351 349 347 343 345 344 341 344 338 339 343 342 343 344 343 341 335 334 333 336 342 342 340 340 341 342 340 339 339 337 337 337 338 339 340
351 352 353 353 353 353 352 352 350 348 346 344 344 344 343 342 338 339 340 342 342 342 341 342 338 335 334 333 336 337 336 338 342 340 338 337 336 333 332 333 333 332 333
352 353 352 351 348 351 351 351 350 350 348 345 343 340 343 342 335 337 339 339 342 342 341 341 340 337 337 334 334 335 336 340 340 338 337 336 336 332 332 331 332 332 331
352 352 351 351 349 352 352 351 349 349 347 344 339 337 340 341 340 338 337 336 338 340 340 339 339 338 339 337 336 336 337 339 338 337 337 336 334 331 331 331 333 331 328
351 351 350 350 350 350 347 348 346 346 345 344 338 336 336 340 341 342 342 341 340 339 339 341 340 340 339 339 338 337 336 337 337 337 337 335 335 334 333 334 332 332 329
349 348 348 346 348 350 350 348 348 347 344 343 340 338 336 336 334 335 337 339 338 337 340 342 340 339 338 338 338 337 336 337 337 337 335 335 335 334 333 333 331 331 329
347 346 345 345 347 346 347 347 343 343 341 339 338 339 333 332 330 329 332 335 337 338 343 342 341 339 339 338 336 338 336 336 336 337 333 332 333 333 332 332 329 332 331
343 343 344 347 345 345 345 344 344 341 341 339 338 337 333 334 330 330 330 329 332 338 343 343 342 340 339 338 336 336 338 337 337 336 335 334 332 331 331 329 331 330 330
348 348 347 346 344 344 343 343 342 342 343 343 338 337 336 333 332 331 330 330 336 339 340 342 342 341 340 338 336 335 335 334 337 336 336 334 333 332 331 330 328 329 327
350 346 347 347 345 344 343 340 342 342 341 341 344 339 339 338 338 337 334 334 339 338 338 340 342 341 340 338 337 335 333 333 334 333 334 333 332 330 332 330 325 325 327
349 349 349 347 346 344 342 341 342 343 340 340 340 342 344 338 342 344 341 342 339 337 338 340 341 341 340 339 337 337 333 333 334 335 334 334 331 330 331 330 326 324 329
346 348 348 344 343 342 341 342 342 341 340 340 340 341 340 341 341 342 342 340 338 337 339 339 340 339 341 339 336 336 335 332 333 334 333 334 332 331 330 329 327 326 329
343 344 342 342 342 343 342 341 342 342 341 339 338 341 339 338 341 341 343 341 338 339 339 340 338 337 336 336 336 335 336 334 333 332 332 332 332 331 329 328 327 326 327
339 341 343 343 342 342 342 340 340 341 341 341 339 339 341 341 340 340 341 339 339 339 340 340 338 337 336 337 336 335 335 336 335 334 335 332 332 331 330 329 329 326 327
339 338 340 342 343 341 342 341 341 341 341 339 337 337 339 339 339 339 339 339 340 340 340 340 338 336 336 337 336 336 335 335 335 335 334 333 333 331 330 329 328 328 328
341 338 338 339 341 341 339 340 340 338 337 338 338 338 338 338 338 337 338 338 340 340 340 340 337 337 337 337 337 336 334 329 333 334 333 333 333 333 331 330 330 329 328
345 344 341 337 335 335 337 337 337 336 336 337 337 337 338 338 338 338 338 339 339 340 340 340 338 337 338 338 338 336 331 329 331 328 332 332 333 333 332 331 330 328 327
Wind_Speed
10 13 14 13 13 12 11 11 10 8 5 5 5 5 6 9 11 13 13 13 10 11 11 12 12 12 14 12 12 14 15 15 15 18 16 16 16 19 17 14 15 17 19
9 10 10 10 11 12 12 12 9 9 11 13 14 10 6 12 7 9 8 7 7 6 8 7 8 8 10 11 12 13 14 15 16 15 13 15 18 20 18 15 16 17 18
7 8 9 8 10 11 11 11 13 16 20 21 18 11 13 5 10 6 8 9 12 13 12 12 12 13 14 12 11 13 13 14 14 16 14 14 20 21 18 19 18 18 17
9 11 13 8 10 5 8 12 16 17 16 17 9 12 9 6 8 10 13 13 14 11 9 9 15 15 17 14 13 15 16 16 17 15 16 23 23 18 13 16 18 18 19
9 14 11 20 13 13 11 12 12 12 10 9 11 5 2 4 7 10 12 11 10 3 7 6 8 9 11 11 13 13 12 12 13 18 16 18 17 15 11 12 15 15 16
9 10 12 12 13 11 13 11 10 9 4 2 2 5 6 5 8 8 6 6 4 3 3 5 6 8 7 10 13 14 14 14 14 14 14 15 13 10 10 13 15 13 8
12 12 13 14 14 14 11 10 9 8 7 7 8 7 6 6 8 9 6 1 2 3 3 4 4 2 4 6 6 9 7 5 6 9 9 9 11 10 12 15 12 14 15
14 14 15 16 16 16 14 13 11 9 8 8 7 5 6 8 11 13 10 7 5 4 4 5 5 6 7 7 7 6 5 3 5 5 6 7 10 13 13 14 15 13 14
14 15 16 16 17 15 14 13 10 10 9 8 6 6 6 8 10 12 10 10 9 9 9 10 9 9 11 9 4 5 4 4 6 4 6 6 8 9 10 9 8 9 8
15 15 15 16 16 15 13 12 10 9 7 6 6 6 9 8 9 9 9 7 8 6 7 7 12 11 13 11 8 8 7 8 9 6 7 8 9 9 9 7 9 10 10
16 16 16 15 15 13 12 11 10 8 7 6 6 7 7 6 7 10 9 7 7 7 8 7 8 11 12 13 12 9 8 7 7 8 8 8 9 11 11 12 11 10 10
17 17 16 14 13 12 12 10 8 7 6 5 4 5 5 5 7 9 10 9 6 6 6 6 6 9 11 15 12 11 9 8 7 8 8 10 10 11 12 12 13 14 11
16 15 13 11 11 10 9 8 7 5 4 4 5 5 5 5 4 8 12 12 10 7 5 5 7 10 10 9 13 12 10 8 8 7 8 8 8 9 9 9 11 10 13
15 14 12 11 9 8 7 6 4 4 4 4 6 6 6 5 5 4 5 6 9 8 7 5 4 4 7 5 8 10 9 10 8 6 9 7 5 6 8 9 11 11 14
14 13 12 11 9 8 3 4 2 2 2 2 4 4 4 3 4 4 4 5 6 7 8 7 8 9 9 9 7 8 8 7 8 7 7 7 8 9 9 8 11 12 14
15 14 13 10 10 8 6 6 5 3 5 6 5 4 2 2 0 2 4 5 6 6 3 7 8 8 9 10 10 8 7 6 6 5 6 6 7 9 8 9 9 9 11
12 12 11 7 7 7 5 4 6 4 3 5 4 4 4 3 3 5 6 7 7 5 5 5 6 6 8 9 11 9 7 6 5 4 4 4 5 6 7 6 7 8 9
11 10 9 8 8 7 5 6 3 1 3 5 5 4 4 3 4 5 6 7 7 5 7 5 5 5 6 8 9 9 7 6 5 4 3 3 4 1 3 5 6 5 7
12 13 11 9 7 5 5 5 4 1 1 4 5 4 5 5 6 6 6 4 7 7 8 7 3 5 4 5 7 5 6 5 2 2 2 3 3 1 2 2 4 3 1
11 7 11 10 9 9 9 8 4 4 3 3 4 1 3 2 5 5 4 3 5 6 7 5 5 4 4 4 6 3 3 4 2 2 1 1 2 2 1 2 2 5 1
10 11 9 10 11 10 11 9 5 3 3 4 4 3 4 5 8 5 6 2 4 4 5 5 4 4 1 0 5 4 1 1 1 2 1 2 2 2 1 3 2 3 2
10 10 10 11 9 9 9 8 7 4 3 3 6 5 7 6 9 6 6 5 1 2 3 3 6 6 4 3 3 4 1 2 1 1 2 3 2 2 2 3 3 3 5
10 11 10 8 7 4 6 10 9 7 7 7 7 7 7 7 5 5 6 6 3 4 3 4 4 4 2 2 3 3 3 3 2 3 2 4 4 3 3 3 1 2 4
9 11 11 10 9 8 7 7 7 7 7 8 8 7 7 6 5 4 6 6 6 6 5 4 3 3 1 3 2 3 3 3 3 3 3 4 5 5 5 5 4 6 6
8 8 9 10 10 12 9 8 6 5 6 6 6 6 6 6 6 6 6 6 8 9 8 6 5 3 4 3 3 3 5 4 4 3 3 4 5 7 6 6 6 6 6
7 6 6 7 9 12 12 11 10 8 9 8 7 7 7 8 8 7 8 9 10 11 11 9 8 7 6 5 4 7 6 2 3 5 3 4 5 7 8 7 7 7 8
Wind_Direction
223 221 220 216 215 219 225 233 228 226 216 199 190 207 249 268 262 262 273 289 292 286 291 283 278 277 272 259 249 247 246 240 251 270 280 280 273 277 269 257 263 260 255
225 214 214 214 211 213 213 218 204 189 183 198 199 197 213 240 252 268 293 296 291 295 304 305 295 280 265 264 264 256 253 259 262 271 281 291 294 277 272 265 256 257 256
191 185 186 194 204 210 211 206 192 189 201 197 205 243 284 251 269 313 296 276 281 281 278 284 286 267 255 258 256 264 261 256 249 262 274 295 294 277 274 266 259 254 254
167 170 161 167 171 181 214 202 194 194 200 202 241 300 287 265 289 301 296 279 276 262 264 264 282 262 255 258 272 271 269 265 263 258 271 290 283 285 263 273 269 263 268
155 171 187 172 190 151 184 196 194 179 197 232 294 308 335 332 328 322 314 312 307 277 309 284 280 268 259 252 280 274 275 265 266 251 260 261 274 290 271 289 287 296 292
138 152 160 163 133 146 171 183 176 183 219 182 130 59 43 25 339 332 311 295 313 326 330 315 294 280 281 278 289 287 267 264 269 274 281 291 301 304 296 290 288 287 283
122 132 133 129 131 145 157 148 152 139 128 105 75 60 53 35 17 13 12 341 356 2 350 344 349 334 351 329 318 321 320 317 279 277 289 297 299 300 303 297 285 272 267
113 119 122 127 130 134 135 135 132 127 108 92 82 72 72 45 43 42 50 38 40 41 35 19 6 17 356 346 342 351 350 36 351 329 311 312 307 309 298 294 298 291 284
119 121 125 130 129 130 133 133 125 115 96 91 87 73 65 44 39 43 50 48 50 55 53 39 30 20 6 14 0 352 342 7 335 345 352 350 342 334 339 325 309 285 278
120 121 126 126 131 132 129 119 117 110 109 101 87 76 72 56 47 44 52 50 57 74 68 50 38 37 32 34 25 13 9 8 8 13 4 359 6 359 359 360 343 338 325
127 125 123 127 127 125 128 135 130 119 113 104 94 84 73 82 48 46 57 42 48 59 60 52 40 33 33 33 39 22 14 351 11 23 13 17 31 31 29 26 26 23 4
127 126 126 127 130 133 131 134 136 138 130 131 117 115 91 77 63 51 55 61 76 50 42 44 20 26 34 31 30 41 30 13 20 26 27 25 24 19 20 31 29 30 32
133 127 124 130 134 135 140 149 156 165 151 162 157 126 106 109 90 59 55 52 56 58 43 34 36 33 26 32 25 33 32 15 38 30 32 22 18 21 26 32 34 34 47
141 138 140 140 143 148 153 158 153 171 180 168 170 153 123 104 88 72 50 34 30 34 35 30 45 52 45 26 24 31 34 29 31 29 23 22 21 40 35 27 40 38 44
155 153 157 159 169 172 184 159 130 111 180 166 160 170 172 118 74 54 43 29 23 17 28 33 37 32 28 24 25 32 38 35 28 35 31 27 25 35 54 51 61 60 59
169 169 173 168 177 186 178 175 192 190 178 180 175 158 176 150 48 339 344 355 359 8 339 16 32 30 29 24 15 23 4 37 38 41 42 32 38 54 59 62 70 64 83
180 170 172 220 193 180 197 197 154 153 170 182 185 182 192 221 265 291 310 317 326 327 295 5 354 21 19 23 17 12 19 7 12 43 59 46 57 74 61 64 46 43 68
188 180 188 202 200 181 193 172 217 168 149 158 198 195 208 233 272 296 310 316 278 259 296 359 339 13 18 21 19 24 18 7 11 13 23 31 45 30 66 54 51 67 103
192 187 199 199 200 206 200 212 210 185 76 140 164 207 229 239 264 282 288 289 332 340 349 339 351 340 20 12 12 48 33 27 10 2 7 14 20 360 8 21 64 13 25
189 195 199 215 202 218 209 221 179 188 198 150 205 211 181 234 239 224 240 284 330 359 7 350 355 345 350 9 7 30 40 26 359 328 297 247 247 268 84 211 81 141 228
182 174 202 230 228 218 209 205 217 244 231 251 218 189 246 267 303 306 278 287 329 353 8 5 0 347 343 335 358 22 101 84 23 322 311 278 239 248 180 238 156 129 59
199 189 187 214 203 209 221 224 216 223 244 261 252 189 264 261 272 289 253 260 270 296 339 342 341 352 4 353 348 2 92 240 244 222 271 285 219 213 222 210 224 173 188
197 191 188 194 196 203 221 232 226 228 248 254 267 268 238 253 288 281 263 264 254 267 287 304 325 333 347 295 329 335 331 310 267 275 238 233 215 217 221 207 226 262 209
193 202 203 200 198 226 223 213 228 244 274 277 272 259 261 268 276 282 273 253 254 264 266 263 280 288 294 289 289 288 282 306 283 231 247 223 229 210 209 191 200 219 222
173 190 208 213 214 219 228 237 227 241 248 264 268 268 253 247 263 254 265 263 265 264 260 253 250 240 233 252 273 276 285 286 223 228 251 245 223 212 211 209 206 208 193
185 179 189 211 223 232 228 226 228 240 254 256 263 259 263 272 267 272 280 279 274 266 258 248 238 230 222 231 230 238 272 270 215 196 218 231 216 217 207 208 211 200 208